Погода в Иркутске

Погода в Иркутске : погода сейчас, прогноз погоды и архив. Всё, что Вы хотите узнать о погоде в Иркутске!

Поиск расширенной информации на нашем сайте:

Полезная информация: ТехноПоинт Иркутск

Другие новости

Новости СМИ2

Главная страница сайта

Новости сайта

02.10.2013

Напоминаем, что на нашем новом сайте вы можете получить высокодетализированные прогнозы погоды по пунктам России, СНГ и мира (включающие важные для авиации метеовеличины, такие как направление и скорость ветра, видимость, явления погоды, количество и форма облачности, нижняя и верхняя граница облачности), а также ознакомиться с разнообразными материалами по авиационной метеорологии и подборкой полезных ссылок на эту тему.

Сайт Метеоцентр.Азия посвящён разработке технологий оптимизации авиаметеорологического обслуживания, включая проектирование и перспективное создание нескольких автоматизированных авиаметеорологических систем:
- система выпуска высокодетальных прогностических карт явлений погоды для нижнего воздушного пространства по России и ближнему зарубежью;
- система верификации прогнозов TAF (выпускаемых синоптиками официальных АМСГ РФ и ближнего зарубежья) и AUTOTAF (выпускаемых сайтом Метеоцентр.Азия) - выявление ошибок, онлайн-сопоставление с фактической погодой METAR, автоматическое внесение коррективов в прогнозы при резком отклонении фактической погоды от прогноза, подсчёт оправдываемости прогнозов по элементам и в целом;
- система обработки, анализа и отображения авиаметеорологической информации для применения провайдерами метеорологической информации.

Рекомендуем: Комплексное бухгалтерское обслуживание

Погода в Иркутске - сегодня

Время (UTC), дата Ветер
(°,м/с) 
Видим.   Явления Облачность Т
(°С)
Тd
(°С)
f(%) Тe
(°С)
Pmin
(гПа)
dP
(гПа)
Po
(мм)
O2
(г/м3)
Тmin Tmax R s Состояние
почвы
09 22.04.17 310 (СЗ) 5-11{11}  20000 м  в посл. час ливневой снег  10/5 600 м кучево-дожд., средняя, верхняя 
[Cb cap|As trans|Ci fib]
+3.9 -6.4 47 +2  1021.4  0.5  723  288           
12 22.04.17 280 (З) 2{11}  20000 м  {ливн. осадки}  6/6 600 м кучево-дожд. 
[Cb cap]
+2.2 -6.1 54 +2  1022.9  1.1  724  290    +6.4  0.0     
15 22.04.17 280 (З) н/о    ясно 
-0.9 -5.6 70 1024.3  0.6  725  293           
18 22.04.17 тихо ()   н/о    ясно 
-2.6 -5.3 82 -3  1024.2  -0.4  724  295           
21 22.04.17 050 (СВ) н/о    ясно 
-4.8 -7 85 -4  1024.8  0.1  724  298           
00 23.04.17 260 (З) 20000 м    ясно 
-0.9 -5.5 71 1024.6  0.6  725  294  -5.7         
03 23.04.17 320 (СЗ) 20000 м    3/3 1000 м 
[Cu hum]
+4.8 -10.2 33 +4  1022.9  -0.5  724  288           
06 23.04.17 290 (З) 20000 м    3/3 1000 м 
[Cu hum]
+7.7 -12 23 +7  1021.1  -1.1  724  285           
09 23.04.17 290 (З) 20000 м    3/3 1000 м 
[Cu hum]
+8.8 -13.3 19 +8  1020.2  -0.6  723  283           
12 23.04.17 290 (З) 20000 м    1/1 1000 м 
[Cu hum]
+6.8 -13.8 21 +7  1021.4  0.7  724  286    +9.3       
15 23.04.17 350 (С) н/о    ясно 
+2.8 -13 30 +4  1023.7  1.4  725  290           
18 23.04.17 050 (СВ) н/о    3/0 верхняя 
[Ci fib]
-1.5 -8.7 58 -1  1026.2  1.5  726  295           
21 23.04.17 050 (СВ) н/о    ясно 
-3.4 -9.2 64 -3  1028.2  1.5  727  297           
00 24.04.17 тихо ()   20000 м    ясно 
-0.4 -8.5 54 -0  1029.3  1.6  728  295  -4.5         
03 24.04.17 280 (З) 20000 м    ясно 
+7.1 -11 26 +8  1028.1  0.4  728  287           
06 24.04.17 300 (СЗ) 20000 м    ясно 
+10.1 -15 15 +10  1026.7  -0.8  728  284           
09 24.04.17 350 (С) 20000 м    ясно 
+11.6 -18 11 +12  1024.9  -1.4  727  282           
12 24.04.17 060 (СВ) 20000 м    ясно 
+9.4 -17.5 13 +10  1025.2  -0.2  727  284    +12       
15 24.04.17 140 (ЮВ) н/о    ясно 
+3.9 -11.6 31 +3  1027  0.7  727  290           
18 24.04.17 130 (ЮВ) н/о    ясно 
+0.4 -9.4 48 -1  1027.1  -0.6  727  293           
21 24.04.17 120 (ЮВ) н/о    ясно 
-0.9 -10.5 48 -2  1026.7  -0.6  726  295           
00 25.04.17 140 (ЮВ) 20000 м    3/0 верхняя 
[Ci fib]
+3 -10.4 37 +4  1027.1  1.1  727  291  -1.3         
03 25.04.17 160 (Ю) 20000 м    1/0 верхняя 
[Ci fib]
+10 -10.4 23 +10  1026.3  0.7  728  284           
06 25.04.17 160 (Ю) 20000 м    8/0 верхняя 
[Ci]
+15 -11.2 15 +16  1024.8  -0.5  727  279           
09 25.04.17 130 (ЮВ) 20000 м    3/0 верхняя 
[Ci fib]
+14.1 -9.4 19 +14  1024.6  -0.4  727  279           
Время (UTC), дата Ветер
(°,м/с) 
Видим.   Явления Облачность Т
(°С)
Тd
(°С)
f(%) Тe
(°С)
Pmin
(гПа)
dP
(гПа)
Po
(мм)
O2
(г/м3)
Тmin Tmax R s Состояние
почвы

Для получения пояснительной информации подведите курсор к названию столбца.

ПОГОДА в Иркутске - архив

Всё, что Вы хотите узнать о погоде в Иркутске - удобно и подробно!

Выберите нужную дату (начиная с 1 января 2015* года) и нажмите кнопку "Найти".
Будут отображены архивные сводки погоды по пункту Иркутск, начиная с указанной даты.


Отображать данные в формате CSV (для использования в таблицах Excel)


Внимание! Наш архив погоды предназначен исключительно для личного некоммерческого использования в познавательных целях. Если Вам необходимы официальные справки о состоянии погоды (для производственных, юридических, коммерческих и т.п. целей), обращайтесь в органы Росгидромета.

*Примечание: данная дата относится к архиву по метеостанциям СССР (Россия, СНГ, Балтия).
Архив по метеостанциям Зарубежной Европы и Азии (кроме Китая) хранится 10 дней, по другим регионам земного шара (Китай, Африка, Америка, Австралия, Океания) - 1 день.

Иркутск - район местоположения метеостанции


Название, широта, долгота, высота метеостанции:
Иркутск (город) 52.3°ш. 104.3°д. 485 м над ур. моря [Российская Федерация]

Дополнительная информация

В oтличие oт бoльшинства пoгoдных сайтoв мы публикуем пoдрoбную метеoинфoрмацию в детальнoм прoфессиoнальнoм фoрмате.

Характеристики температуры и влажнoсти вoздуха измеряются на высoте 2 м в тени вдали oт зданий и деревьев.
Скoрoсть ветра измеряется на высoте 10 м (на урoвне рoста челoвека скoрoсть ветра ниже в 1.5-2 раза). Если метеoстанция нахoдится в гoрoде или в лесу, тo скoрoсть ветра занижена на 2-4 м/с пo сравнению с oткрытым местoм. Скoрoсть ветра над акватoриями крупных рек и oзёр, а также на вершинах хoлмoв на 2-5 м/с выше, чем в oбычных услoвиях.
Атмoсфернoе давление в разных тoчках местнoсти мoжет значительнo oтличаться oт давления на метеoстанции, в зависимoсти oт услoвий рельефа (при пoдъёме на 10 м давление пoнижается примернo на 1 мм рт.ст.).